Temperature
14 14 14 14 14 14 14 14 14 14 14 13 13 13 12 12 12 12 12 11 11 11 11 11 11 11 10 10 10 10 10 10 10 10 10 10 10 10 10 10 10 10 10
13 14 14 14 14 14 14 14 14 13 13 13 13 13 12 12 12 11 11 11 11 11 11 11 10 10 10 10 10 10 10 9 9 8 8 8 9 9 9 9 9 9 9
13 13 14 14 14 14 14 14 13 13 13 13 12 12 12 12 11 11 11 11 11 10 10 10 10 10 10 9 9 9 9 9 8 8 7 7 7 7 8 9 9 9 9
13 13 13 13 13 13 13 13 13 13 13 12 12 12 12 12 11 11 11 10 10 10 10 9 9 9 9 9 9 9 8 8 8 8 7 7 6 6 6 7 8 8 8
13 13 13 13 13 13 13 13 13 12 12 12 12 12 11 11 11 11 10 10 10 9 9 9 9 9 9 8 8 8 8 8 7 7 7 7 6 6 6 6 7 7 8
12 12 12 12 12 12 12 12 12 12 12 11 11 11 11 11 10 10 10 10 9 9 9 8 8 8 8 8 8 8 7 7 7 7 6 6 6 6 5 5 5 6 7
12 12 12 12 12 12 12 12 12 12 11 11 11 11 10 10 10 10 9 9 9 9 8 8 8 8 8 7 7 7 7 7 6 6 6 6 6 5 5 5 5 5 5
11 11 12 12 11 11 11 11 11 11 11 11 10 10 10 10 9 9 9 9 8 8 8 7 7 7 7 7 7 7 6 6 6 6 6 5 5 5 5 4 4 4 4
11 11 11 11 11 11 11 11 11 10 10 10 10 10 9 9 9 8 8 8 8 7 7 7 7 7 7 7 6 6 6 6 5 5 5 5 5 5 4 4 4 3 2
10 10 10 10 10 10 10 10 10 10 10 9 9 9 9 9 8 8 8 7 7 7 7 7 6 6 6 6 6 6 5 5 5 5 5 5 4 4 4 4 3 3 2
10 10 10 10 10 10 10 10 10 9 9 9 9 8 8 8 8 7 7 7 7 7 6 6 6 6 6 6 5 5 5 5 5 4 4 4 4 4 3 3 3 3 2
9 10 9 9 10 10 9 9 9 9 9 8 8 8 7 7 7 7 7 6 6 6 6 6 5 5 5 5 5 5 4 4 4 4 4 4 3 3 3 3 2 2 2
9 9 9 9 9 9 9 9 8 8 8 8 8 7 7 7 6 6 6 6 6 5 5 5 5 5 5 4 4 4 4 4 4 3 3 3 3 2 2 2 2 2 2
8 8 9 8 8 8 8 8 8 8 7 7 7 7 6 6 6 6 5 5 5 5 5 5 4 4 4 4 4 3 3 3 3 3 2 2 2 2 2 2 2 1 1
8 8 8 8 7 7 7 7 7 7 7 7 6 6 6 5 5 5 5 5 4 4 4 4 4 4 3 3 3 3 2 2 2 2 2 2 1 1 1 1 1 1 1
7 7 7 7 7 7 7 7 7 6 6 6 6 5 5 5 5 4 4 4 4 4 3 3 3 3 3 3 2 2 2 2 2 1 1 1 1 1 1 1 1 0 -0
7 7 7 7 6 6 6 6 6 6 6 5 5 5 5 4 4 4 4 3 3 3 3 3 3 3 3 2 2 1 1 1 1 1 1 0 0 0 0 0 0 0 -0
7 6 6 6 6 6 6 6 5 5 5 5 4 4 4 4 4 3 3 3 3 2 2 2 2 2 2 2 1 1 1 1 0 0 0 -0 -0 -0 -0 -0 -0 -0 -0
6 6 6 6 5 5 5 5 5 5 4 4 4 3 3 3 3 3 2 2 2 2 2 2 2 2 2 1 1 0 0 0 -0 -0 -0 -1 -1 -1 -1 -1 -1 -1 -1
6 6 5 5 5 4 4 4 4 4 3 3 3 3 3 2 2 2 2 1 1 1 1 1 1 1 1 1 0 -0 -0 -0 -0 -1 -1 -1 -1 -1 -1 -2 -1 -2 -1
5 5 4 4 4 4 4 4 3 3 3 3 2 2 2 2 1 1 1 1 0 0 0 0 0 0 -0 -0 -0 -1 -1 -1 -1 -1 -1 -1 -2 -2 -2 -2 -2 -2 -2
4 4 4 3 3 3 3 3 3 2 2 2 2 1 1 1 1 0 0 -0 -0 -0 -0 -1 -0 -1 -1 -1 -1 -2 -2 -2 -2 -2 -2 -2 -2 -2 -2 -2 -2 -2 -2
3 3 3 3 3 2 2 2 2 2 1 1 1 1 0 0 -0 -0 -0 -1 -1 -1 -1 -1 -2 -2 -2 -2 -2 -2 -2 -2 -3 -3 -3 -3 -3 -3 -3 -3 -3 -3 -3
2 2 2 2 2 2 1 1 1 1 1 0 0 -0 -0 -1 -1 -1 -1 -1 -2 -2 -2 -2 -3 -3 -3 -3 -3 -3 -3 -3 -3 -3 -3 -3 -3 -3 -3 -3 -3 -3 -3
2 2 2 1 1 1 1 0 0 -0 -0 -0 -1 -1 -1 -1 -2 -2 -2 -2 -2 -3 -3 -3 -3 -4 -4 -4 -4 -4 -4 -4 -4 -3 -3 -3 -3 -3 -3 -3 -3 -3 -3
1 1 1 1 1 0 -0 -0 -1 -1 -1 -1 -1 -2 -2 -2 -2 -2 -2 -3 -3 -3 -3 -4 -4 -4 -4 -4 -4 -4 -4 -4 -4 -4 -4 -4 -4 -4 -4 -4 -4 -4 -4
Wind_Speed
6 4 3 3 3 3 4 5 5 4 4 3 3 2 2 1 1 1 1 2 2 2 2 1 1 1 2 2 2 2 2 2 1 1 3 4 4 4 4 4 4 5 6
4 4 3 3 4 4 5 4 5 5 5 4 4 3 2 1 1 1 0 1 1 1 1 1 2 2 2 2 2 2 2 2 1 1 1 3 3 3 4 4 4 5 4
8 6 4 4 4 5 6 6 6 5 5 4 3 2 2 1 1 0 1 1 0 1 1 2 2 2 2 2 3 3 3 3 2 2 2 2 3 4 3 4 5 5 5
6 5 5 5 5 6 5 5 5 5 4 5 5 5 3 2 2 1 1 1 0 0 1 2 2 2 2 2 3 2 3 3 3 2 2 3 2 2 4 3 4 5 6
7 6 6 6 5 4 4 4 4 3 3 4 5 5 3 2 1 0 0 1 1 1 1 1 2 2 2 3 3 3 3 3 4 3 2 3 3 3 4 6 5 4 5
5 4 3 3 2 2 3 4 4 3 3 4 4 5 4 3 2 1 1 1 1 2 2 2 2 2 2 3 3 3 4 4 4 4 3 3 2 3 4 6 6 6 5
4 4 4 4 3 3 4 4 4 3 3 4 4 4 4 4 3 2 2 2 2 2 3 2 2 2 3 3 4 4 4 4 5 5 5 5 5 3 4 5 6 7 5
4 4 5 5 5 5 5 4 4 3 3 4 3 3 3 2 2 2 2 2 2 3 3 3 3 3 3 3 4 4 5 4 5 6 6 5 5 4 4 4 5 7 6
4 4 4 4 4 5 5 5 5 3 3 3 3 2 2 2 1 1 1 1 2 2 3 3 3 4 4 4 4 4 5 5 5 6 6 6 5 5 5 4 4 5 8
4 4 4 4 4 4 4 4 5 5 3 3 2 2 1 1 1 0 1 2 2 3 3 3 4 4 4 4 4 4 5 6 6 5 6 6 5 5 5 5 5 6 7
4 4 3 3 3 3 4 4 4 4 3 3 2 2 1 0 1 0 1 2 2 3 3 3 4 4 4 4 4 5 5 6 6 6 7 7 6 5 5 5 5 6 6
3 3 3 3 4 3 3 4 4 4 3 3 3 2 1 1 1 1 2 2 3 3 4 4 4 4 5 4 5 6 6 6 7 7 7 7 6 6 6 5 6 7 7
2 2 3 3 4 3 3 3 3 3 3 3 3 2 1 1 1 2 2 3 3 4 4 4 4 5 5 5 5 5 6 6 6 7 7 7 7 7 6 7 7 7 7
3 3 3 3 3 3 3 3 2 2 3 3 3 2 1 0 1 2 2 3 3 4 4 4 5 5 5 5 6 6 6 6 6 7 7 7 7 8 8 7 7 7 7
3 4 4 3 3 3 2 2 2 2 2 3 2 1 0 1 1 2 2 3 4 4 5 5 5 5 5 5 5 5 6 6 6 7 7 7 9 10 9 7 6 6 7
4 4 4 4 4 4 3 2 2 1 2 2 1 1 0 1 2 2 3 4 4 5 5 5 6 6 5 8 9 8 6 5 6 7 7 8 8 10 11 12 12 10 9
4 4 4 4 4 3 3 3 2 1 2 1 1 0 0 1 2 3 4 4 4 4 5 5 5 6 7 9 10 10 6 5 6 7 7 7 8 10 8 10 12 12 13
4 4 4 3 2 2 2 2 2 2 2 1 0 0 0 1 2 3 4 4 4 4 5 6 6 6 7 10 10 11 6 6 6 7 7 8 8 8 9 8 8 9 10
4 4 4 4 3 3 3 3 2 2 2 1 1 1 1 2 2 3 4 4 4 5 5 6 6 6 8 10 11 10 5 5 7 7 7 7 8 12 13 9 9 9 9
3 3 3 3 3 2 3 3 2 1 0 1 1 1 1 2 2 3 4 4 4 5 5 6 5 6 7 10 11 11 4 5 6 6 6 9 10 13 13 8 7 9 8
3 4 4 3 2 2 3 3 2 1 1 1 1 1 1 2 2 3 3 4 4 5 5 6 6 5 7 9 11 11 5 5 6 6 5 6 12 13 13 10 7 10 9
3 3 3 2 1 1 3 2 1 1 0 1 1 2 2 2 2 2 3 4 4 5 5 6 6 5 6 8 9 11 10 9 6 6 5 6 11 12 12 9 9 11 9
3 3 3 2 1 1 2 2 0 0 1 1 1 2 2 2 2 2 3 3 3 3 5 5 6 6 6 7 11 11 11 11 7 6 9 10 11 10 8 9 10 8 5
2 2 3 2 1 1 2 1 0 1 1 1 2 2 2 3 3 2 2 3 3 4 5 5 6 6 6 6 5 5 6 8 7 6 7 9 9 7 7 7 6 4 4
1 2 2 2 1 1 1 1 1 1 1 1 2 2 2 2 3 3 3 4 4 4 5 5 5 6 7 8 12 9 6 5 6 5 3 3 4 4 4 4 4 4 4
2 1 1 1 1 1 1 1 1 0 0 1 2 2 2 2 3 3 5 6 7 9 9 9 8 7 10 13 13 12 12 11 9 5 3 4 4 4 5 5 5 4 4
Wind_Direction
246 236 217 198 178 180 183 186 176 176 163 159 162 170 196 212 210 208 185 170 173 171 163 199 218 209 210 230 242 250 268 262 256 282 294 284 263 256 250 247 251 254 253
239 233 211 192 188 192 190 185 184 180 176 178 176 175 178 187 199 214 167 138 156 170 193 192 213 224 230 244 248 235 250 270 219 205 296 301 303 277 256 254 255 259 256
219 219 212 209 196 194 193 187 185 181 178 165 142 113 89 75 100 260 254 275 164 167 205 220 224 228 224 237 245 222 222 248 242 196 207 253 266 300 271 250 247 254 259
218 212 205 207 206 206 195 184 173 172 170 159 157 161 171 197 221 217 216 305 5 17 236 229 229 228 232 234 240 229 226 226 246 243 232 241 245 268 291 283 262 263 263
214 209 205 206 208 196 183 179 157 157 160 159 162 160 169 187 174 95 111 309 317 332 301 250 236 235 240 239 236 234 234 224 229 232 237 254 264 241 256 282 286 280 258
214 209 204 189 186 170 162 156 146 151 150 149 155 159 163 161 144 196 231 281 301 299 291 268 247 241 245 244 240 232 228 232 231 234 230 232 240 252 257 272 284 284 277
197 193 186 180 174 168 166 155 149 154 151 145 152 159 164 164 178 199 214 244 273 277 274 273 257 254 252 250 247 238 238 234 232 235 239 238 242 250 260 270 281 285 287
196 198 197 185 178 174 168 158 156 156 150 144 148 148 151 165 188 204 212 235 253 260 263 260 265 264 260 263 256 246 243 243 239 244 240 245 247 244 248 257 276 289 284
205 200 192 182 174 169 167 161 156 147 147 149 148 144 148 152 186 222 230 258 274 283 282 275 272 271 266 260 260 257 250 244 241 243 241 244 246 242 244 248 251 264 281
206 196 189 182 175 169 161 151 155 156 155 145 141 136 145 157 168 200 261 277 283 288 290 288 283 277 271 265 260 264 262 248 247 245 244 247 249 248 244 245 250 249 260
205 194 186 172 155 145 144 145 147 141 135 132 128 120 101 72 79 17 286 285 295 299 296 292 289 287 283 274 265 264 265 261 258 254 252 252 248 250 252 250 251 254 256
200 176 163 148 138 141 143 147 147 140 144 138 127 123 99 58 50 340 310 313 312 310 306 304 303 300 295 287 278 275 271 265 263 258 255 255 254 250 250 249 252 256 257
184 152 142 146 148 147 145 143 143 144 140 128 120 109 92 54 1 326 323 329 323 320 319 316 306 299 295 291 284 277 274 269 265 262 258 259 256 257 258 254 255 258 263
192 170 160 157 150 147 146 141 135 139 136 124 116 108 90 350 330 332 332 326 321 319 314 306 299 293 290 287 283 279 274 272 271 270 261 256 253 256 260 260 258 262 264
208 182 170 165 155 146 142 139 140 143 136 122 113 119 36 346 345 339 329 326 325 322 313 309 305 294 287 283 282 278 278 276 278 277 271 262 264 267 266 269 264 265 268
211 190 172 163 166 167 161 146 146 144 123 126 144 138 63 355 337 328 329 331 328 325 322 312 306 302 295 297 296 293 282 280 280 283 284 278 269 274 276 278 277 272 268
201 182 178 176 176 172 161 166 173 143 133 143 144 90 43 337 323 329 336 329 322 322 319 311 307 301 299 304 302 301 293 281 278 278 279 285 286 286 271 276 279 275 276
179 173 169 164 159 143 140 140 130 127 124 102 38 346 330 316 321 329 325 319 318 317 313 312 309 305 308 311 307 305 293 277 274 272 266 272 278 281 282 274 272 268 268
168 165 161 156 144 137 137 120 105 99 89 60 297 286 285 301 314 316 314 314 317 318 313 309 308 306 307 312 312 308 285 279 275 272 270 274 274 286 294 287 281 282 280
129 132 127 119 123 132 127 118 119 106 132 273 287 302 301 295 300 303 307 311 313 311 314 312 307 301 299 308 312 312 290 288 288 282 275 281 287 292 295 286 281 285 290
115 117 116 121 142 139 129 129 131 193 257 311 333 332 321 306 297 304 310 315 318 320 320 315 308 302 302 308 312 314 305 292 291 288 284 282 293 295 296 295 281 284 293
100 107 109 99 89 132 138 137 174 242 9 20 340 325 319 317 324 323 319 319 319 322 323 323 319 311 306 310 311 314 313 311 296 287 287 290 298 299 299 298 294 298 302
117 118 122 109 65 102 135 143 234 39 45 15 331 323 329 328 320 313 313 319 319 319 320 320 319 317 313 308 313 316 316 314 306 292 301 306 309 307 300 301 305 305 295
118 114 109 101 58 47 66 104 26 51 56 359 332 331 331 325 322 316 309 308 308 308 309 311 312 313 313 311 311 306 307 311 307 299 303 311 313 313 309 307 306 300 289
119 122 129 134 140 94 56 29 29 56 27 347 333 329 322 315 315 314 303 300 286 291 302 299 299 306 307 309 318 319 315 313 306 313 310 318 316 316 314 314 309 306 306
120 116 120 137 152 112 28 7 3 44 26 328 322 314 313 313 313 314 318 316 314 316 317 315 310 305 308 315 320 322 324 326 326 329 319 313 311 312 314 314 314 311 307
Height
1453 1454 1456 1458 1459 1461 1463 1464 1466 1468 1469 1470 1471 1472 1473 1474 1474 1475 1476 1476 1477 1477 1478 1478 1478 1478 1477 1477 1477 1477 1476 1475 1475 1474 1472 1471 1472 1472 1472 1472 1472 1472 1472
1448 1450 1452 1454 1455 1457 1458 1460 1462 1464 1465 1466 1468 1469 1470 1471 1472 1472 1473 1473 1473 1474 1474 1474 1474 1474 1473 1473 1473 1472 1472 1471 1471 1470 1469 1467 1466 1465 1466 1467 1467 1467 1467
1443 1445 1447 1449 1451 1453 1454 1456 1458 1460 1462 1463 1465 1466 1467 1467 1468 1469 1469 1470 1470 1470 1470 1470 1470 1470 1469 1469 1469 1468 1468 1468 1467 1467 1468 1466 1462 1460 1460 1460 1461 1461 1461
1440 1441 1443 1445 1447 1449 1451 1452 1454 1456 1458 1460 1461 1462 1463 1463 1464 1465 1466 1466 1467 1466 1466 1466 1466 1466 1465 1465 1465 1464 1464 1464 1463 1463 1463 1463 1461 1459 1455 1454 1455 1455 1454
1436 1437 1439 1441 1444 1446 1447 1449 1451 1453 1455 1457 1458 1459 1460 1461 1462 1462 1463 1463 1463 1463 1462 1462 1462 1461 1461 1460 1460 1460 1460 1459 1459 1458 1457 1457 1457 1455 1454 1449 1448 1448 1448
1432 1434 1436 1438 1440 1442 1444 1446 1448 1450 1452 1453 1455 1456 1457 1457 1458 1459 1459 1459 1459 1459 1459 1458 1458 1457 1456 1456 1456 1455 1455 1454 1454 1454 1452 1451 1451 1450 1449 1446 1442 1441 1440
1429 1431 1433 1435 1437 1439 1441 1443 1445 1447 1449 1450 1452 1453 1454 1454 1455 1455 1455 1455 1455 1454 1454 1454 1453 1452 1452 1451 1451 1450 1449 1449 1449 1448 1447 1446 1446 1445 1444 1442 1439 1436 1434
1426 1428 1430 1431 1433 1436 1438 1440 1442 1444 1446 1447 1449 1450 1451 1451 1451 1452 1452 1451 1451 1450 1450 1449 1448 1447 1447 1446 1445 1444 1444 1443 1443 1442 1441 1441 1440 1439 1438 1437 1435 1431 1427
1423 1425 1427 1429 1431 1433 1436 1438 1440 1442 1444 1445 1446 1446 1447 1448 1448 1448 1448 1448 1447 1446 1445 1445 1444 1443 1442 1441 1440 1439 1438 1438 1437 1436 1435 1435 1434 1433 1433 1432 1431 1430 1424
1421 1423 1425 1427 1429 1431 1434 1436 1438 1440 1441 1442 1443 1444 1444 1445 1445 1445 1444 1444 1443 1442 1441 1440 1439 1437 1436 1435 1434 1433 1432 1432 1431 1430 1429 1428 1427 1427 1426 1425 1425 1424 1421
1419 1421 1423 1425 1427 1429 1432 1434 1435 1437 1438 1439 1440 1441 1441 1441 1441 1441 1440 1440 1439 1438 1436 1435 1433 1432 1430 1429 1428 1427 1426 1425 1424 1424 1423 1421 1421 1420 1419 1418 1418 1417 1415
1418 1419 1421 1423 1425 1427 1429 1431 1433 1434 1435 1437 1437 1438 1438 1438 1437 1437 1437 1436 1434 1433 1431 1430 1428 1426 1425 1423 1422 1421 1420 1419 1418 1417 1416 1415 1414 1413 1412 1411 1410 1410 1408
1417 1418 1420 1422 1423 1425 1427 1429 1430 1431 1433 1434 1434 1434 1435 1435 1434 1434 1433 1432 1430 1428 1426 1424 1422 1420 1419 1417 1416 1415 1414 1412 1411 1410 1409 1408 1407 1406 1405 1404 1403 1402 1401
1415 1416 1418 1420 1421 1423 1425 1426 1428 1429 1430 1431 1431 1431 1432 1432 1431 1430 1429 1427 1425 1423 1421 1419 1417 1415 1413 1411 1410 1408 1407 1406 1405 1404 1403 1402 1401 1399 1398 1397 1396 1395 1394
1414 1415 1416 1418 1420 1421 1423 1424 1425 1427 1427 1428 1428 1428 1429 1428 1427 1426 1425 1423 1421 1419 1416 1414 1412 1409 1407 1406 1404 1403 1401 1400 1399 1398 1396 1395 1394 1393 1392 1391 1389 1388 1387
1412 1413 1414 1416 1417 1419 1420 1422 1423 1424 1424 1424 1425 1425 1425 1425 1424 1422 1421 1419 1416 1414 1412 1410 1407 1405 1402 1401 1399 1398 1396 1394 1393 1391 1390 1389 1387 1386 1385 1384 1383 1382 1380
1410 1411 1412 1413 1415 1416 1418 1419 1420 1421 1421 1421 1422 1422 1422 1421 1420 1419 1417 1415 1412 1410 1407 1405 1403 1400 1398 1396 1394 1392 1391 1389 1387 1385 1384 1382 1381 1380 1378 1377 1376 1375 1374
1408 1409 1411 1412 1414 1415 1416 1417 1418 1418 1418 1419 1419 1419 1418 1418 1417 1415 1413 1411 1408 1406 1403 1401 1398 1395 1393 1391 1389 1387 1385 1383 1381 1380 1378 1376 1374 1373 1372 1370 1368 1367 1366
1406 1408 1409 1411 1412 1413 1414 1415 1416 1416 1416 1416 1416 1416 1415 1414 1413 1411 1409 1407 1404 1401 1399 1396 1393 1391 1388 1386 1384 1382 1380 1378 1376 1374 1372 1370 1369 1367 1366 1365 1362 1360 1359
1405 1406 1408 1410 1411 1412 1413 1413 1413 1414 1414 1414 1414 1413 1412 1411 1409 1407 1405 1403 1400 1397 1394 1391 1389 1386 1384 1381 1379 1377 1375 1372 1370 1368 1367 1365 1363 1362 1361 1359 1357 1354 1353
1404 1405 1406 1408 1409 1410 1411 1411 1411 1412 1412 1411 1411 1410 1409 1407 1406 1404 1401 1399 1396 1393 1390 1387 1384 1382 1379 1377 1375 1373 1370 1368 1365 1363 1361 1359 1358 1356 1355 1354 1352 1350 1348
1402 1403 1405 1406 1407 1408 1409 1408 1409 1409 1409 1408 1407 1407 1405 1404 1402 1400 1398 1396 1393 1389 1386 1383 1380 1378 1376 1373 1370 1368 1366 1364 1362 1359 1357 1354 1353 1351 1350 1348 1346 1345 1343
1401 1402 1403 1404 1405 1406 1407 1406 1406 1406 1406 1405 1404 1403 1402 1401 1399 1397 1394 1392 1389 1386 1383 1380 1377 1374 1371 1369 1367 1364 1362 1360 1357 1354 1352 1350 1348 1346 1344 1343 1341 1340 1338
1400 1401 1402 1402 1403 1404 1404 1405 1404 1404 1403 1402 1401 1400 1399 1397 1395 1393 1391 1389 1386 1383 1380 1377 1374 1371 1368 1365 1363 1360 1358 1355 1352 1350 1348 1346 1343 1342 1340 1338 1337 1335 1333
1398 1399 1400 1401 1401 1402 1402 1402 1402 1402 1401 1400 1399 1397 1396 1394 1392 1390 1388 1386 1383 1381 1378 1375 1372 1369 1365 1363 1361 1358 1354 1351 1349 1346 1343 1341 1339 1337 1335 1334 1332 1331 1329
1397 1398 1398 1399 1400 1400 1400 1400 1400 1399 1398 1397 1396 1394 1393 1391 1389 1387 1384 1382 1380 1378 1375 1372 1370 1366 1364 1360 1357 1354 1351 1348 1346 1343 1340 1338 1336 1334 1332 1330 1329 1327 1326